Location: Cortada Guamacho
(10.5667°N, 67.0833°W)
Time: 17:01:20
(UTC+00:00)

SWIFT - Pass Details

Date: 03 July 2022
Orbit: 539 x 553 km, 20.6° (Epoch: 18 August)

Event Time Altitude Azimuth Distance (km) Brightness Sun altitude
Rises 23:38:12 0° 239° (WSW) 2,709 6.4 -10.6°
Reaches altitude 10° 23:40:33 10° 234° (SW) 1,814 5.3 -11.1°
Maximum altitude 23:44:37 48° 159° (SSE) 718 2.6 -12.0°
Enters shadow 23:47:43 16° 89° (E) 1,451 3.9 -12.7°
